ONEWEB-0356, 49283

Orbit data source: Space-Track

ONEWEB-0356, 49283 is a payload satellite owned by One Web (NAA) (UK) in LEO that was launched on Thu, 14 Oct 2021 UTC via a SOYUZ-2-1B launch vehicle from the Vostochny Cosmodrome (VOSTO). Payload-class satellites include a variety of spacecraft equipped with specific instruments for various scientific and technological missions. These include communications satellites like Starlink; space stations such as the ISS; scientific satellites like the Hubble; Earth observation satellites from companies like Planet Labs, Umbra, and HawkEye 360; GPS; miniature CubeSats for education and research; and military/defense satellites.

Loading next visibility...
Identifier
49283, 2021-090E
Orbit
LEO
Country
Flag of UKUK
Related business
Manufacturer
One Web
Mission
Operational Commercial Communications
Bus & Motor
ARROW, Unknown motor
Mass
148 kg wet, ~140 kg dry
Launch date (UTC)
2021-10-14 (5 years ago)
Launch vehicle
SOYUZ-2-1B
Launch site
Vostochny Cosmodrome (VOSTO)
Object type
Payload
Rocket body
Debris
Shape & HBR
Trap Box + 2 Pan, 6.7 m
Radar Cross Section
3.464 m², Large (>1 m²)

Expand to show TLE details & history
Last TLE update: 3 days ago

TLE from 3 days ago
0 ONEWEB-0356
1 49283U 21090E   26170.80201543  .00000029  00000-0  40275-4 0  9990
2 49283  87.9196 273.9133 0001982  77.1821 282.9533 13.20773323230178
Epoch: 2026-06-19T19:14Z
TLE epoch observation values (Epoch: 2026-06-19T19:14:54.133Z)
Latitude
-0.00007°
Longitude
77.16197°
Altitude
1,184.335 km
Speed
7.262 km/s
True Right ascension
18h 15m 39s
True Declination
0° 00' 00"
Sunlit
Object was in full shadow at epoch
Visualization orbit readout
Latitude
Unknown
Longitude
Unknown
Altitude
Unknown
Speed
Unknown
Apparent Right ascension
Unknown
Apparent Declination
Unknown
Sunlit
N/A
Visualization observer readout
Local Sidereal Time
21:38:48
Azimuth
Unknown
Elevation
Unknown
Doppler factor
Unknown
Orbital elements
Apogee altitude
1,180.37 km
Perigee altitude
1,177.374 km
Semi-major axis
7,557.009 km
Eccentricity
0.0002
Inclination
87.9196°
RAAN
273.9133°
Arg. of periapsis
77.1821°
True anomaly
282.93116°
Mean anomaly
282.9533°
Eccentric anomaly
282.94223°
Mean motion
3.30383 °/min
Orbital period
108.96 mins
BSTAR
0.000040275
Loading maneuver chart data...
Computing Atmospheric mass density...
Loading historical data...
Loading historical data...
Loading historical data...
Loading historical data...
Loading historical data...
Loading historical data...
Loading historical data...

Documentation

Showing up to 5 results
|